User: anonymous   Login
Location: Unspecified
(0.0000°N, 0.0000°E)
Time: 23:03:10
(UTC+00:00)
Language:

STARLINK-11600 [DTC] - Orbit

View from above orbital plane
View from above orbital plane
View from above satellite
View from above satellite

Ground track
Ground track

The orbit is defined by the following mean orbital elements,

1 63114U          26145.09384315 +.00000000 +00000-0 +12443-2 0 00005
2 63114  43.0005 136.1467 0001728 267.6743  92.3927 15.70830958    08
Epoch (UTC): 25 May 2026 02:15:08
Eccentricity: 0.0001728
inclination: 43.0005°
perigee height: 355 km
apogee height: 358 km
right ascension of ascending node: 136.1467°
argument of perigee: 267.6743°
revolutions per day: 15.70830958
mean anomaly at epoch: 92.3927°

The dashed part of the orbit path shows where the satellite is in the earth's shadow,  

DLR